TimeMST,TemperatureF,Dew PointF,Humidity,Sea Level PressureIn,VisibilityMPH,Wind Direction,Wind SpeedMPH,Gust SpeedMPH,PrecipitationIn,Events,Conditions,WindDirDegrees,DateUTC
12:58 AM,31.8,26.1,79,30.26,10.0,SSE,3.5,-,N/A,,Clear,160,2013-12-10 07:58:00
1:58 AM,34.3,23.5,65,30.24,10.0,NE,1.2,-,N/A,,Clear,40,2013-12-10 08:58:00
2:58 AM,31.8,24.6,75,30.24,10.0,SSE,3.5,-,N/A,,Clear,160,2013-12-10 09:58:00
3:58 AM,35.2,20.8,56,30.20,10.0,NE,2.3,-,N/A,,Clear,50,2013-12-10 10:58:00
4:58 AM,37.6,17.6,44,30.18,10.0,SE,4.6,-,N/A,,Clear,140,2013-12-10 11:58:00
5:58 AM,40.3,16.5,38,30.17,10.0,SE,6.9,-,N/A,,Mostly Cloudy,130,2013-12-10 12:58:00
6:58 AM,42.3,15.1,33,30.17,10.0,North,4.6,-,N/A,,Mostly Cloudy,10,2013-12-10 13:58:00
7:58 AM,44.1,14.0,30,30.19,10.0,NNW,4.6,-,N/A,,Scattered Clouds,330,2013-12-10 14:58:00
8:58 AM,45.3,14.2,29,30.23,10.0,North,3.5,-,N/A,,Mostly Cloudy,360,2013-12-10 15:58:00
9:58 AM,46.8,19.9,35,30.22,10.0,NNE,3.5,-,N/A,,Clear,30,2013-12-10 16:58:00
10:58 AM,50.5,15.8,25,30.21,10.0,East,5.8,-,N/A,,Clear,100,2013-12-10 17:58:00
11:58 AM,55.0,16.0,22,30.17,10.0,East,6.9,-,N/A,,Clear,100,2013-12-10 18:58:00
12:58 PM,58.3,17.4,20,30.10,10.0,East,8.1,-,N/A,,Clear,90,2013-12-10 19:58:00
1:58 PM,59.5,19.4,21,30.08,10.0,ESE,4.6,-,N/A,,Clear,120,2013-12-10 20:58:00
2:58 PM,59.7,18.3,20,30.06,10.0,NW,2.3,-,N/A,,Clear,310,2013-12-10 21:58:00
3:58 PM,59.7,19.8,21,30.05,10.0,NW,9.2,-,N/A,,Clear,310,2013-12-10 22:58:00
4:58 PM,55.0,21.7,27,30.07,10.0,WNW,5.8,-,N/A,,Clear,300,2013-12-10 23:58:00
5:58 PM,51.8,22.5,32,30.07,10.0,WNW,5.8,-,N/A,,Clear,300,2013-12-11 00:58:00
6:58 PM,48.6,24.1,38,30.08,10.0,WNW,4.6,-,N/A,,Scattered Clouds,300,2013-12-11 01:58:00
7:58 PM,47.3,23.7,40,30.10,10.0,South,3.5,-,N/A,,Clear,190,2013-12-11 02:58:00
8:58 PM,41.9,28.2,58,30.12,10.0,SSW,4.6,-,N/A,,Scattered Clouds,200,2013-12-11 03:58:00
9:58 PM,41.2,30.2,65,30.13,10.0,SSE,1.2,-,N/A,,Partly Cloudy,160,2013-12-11 04:58:00
10:58 PM,43.5,24.6,47,30.13,10.0,SSE,3.5,-,N/A,,Clear,150,2013-12-11 05:58:00
11:58 PM,41.0,26.6,57,30.12,10.0,SE,4.6,-,N/A,,Clear,140,2013-12-11 06:58:00